Date String (YYYY-MM-DD hh:mm:ss) UTC,Instrument flags,Ambient pressure (hPa),Sample flow (lpm),Bypass flow (lpm),Sample temperature (°C),Ambient temperature (°C),ASC tube jacket temperature (°C),LED temperature (°C),Box temperature (°C),Sample RH (%),Span deviation,Mass concentration (μg/m³),Mass concentration (μg/m³),Mass concentration (μg/m³)
DateTimeUTC,F1_M11,P_M11,Q1_M11,Q2_M11,T1_M11,T2_M11,T3_M11,T4_M11,T5_M11,U1_M11,ZSPAN_M11,X0_M11,X2_M11,X1_M11
2021-10-01 00:00:00,,0833.1,5.00,0.00,28.4,27.7,00.0,37.6,30.2,23.2,-000.1,0012.45,0007.41,0006.89
2021-10-01 00:01:00,,0833.1,5.01,0.00,28.4,27.7,00.0,37.5,30.2,23.1,0000.0,0012.04,0007.38,0006.86
2021-10-01 00:02:00,,0833.2,5.00,0.00,28.4,27.7,00.0,37.5,30.2,23.1,0000.2,0011.71,0007.35,0006.83
2021-10-01 00:03:00,,0833.2,5.00,0.00,28.4,27.7,00.0,37.5,30.2,23.2,0000.1,0012.29,0007.33,0006.82
2021-10-01 00:04:00,,0833.2,5.00,0.00,28.4,27.7,00.0,37.5,30.1,23.1,0000.2,0012.74,0007.39,0006.83
2021-10-01 00:05:00,,0833.1,4.99,0.00,28.4,27.7,00.0,37.5,30.1,23.2,0000.2,0012.83,0007.39,0006.83
2021-10-01 00:06:00,,0833.1,5.01,0.00,28.4,27.7,00.0,37.5,30.1,23.4,-000.3,0012.86,0007.37,0006.82
2021-10-01 00:07:00,,0833.1,4.99,0.00,28.4,27.6,00.0,37.5,30.1,23.5,-000.1,0012.82,0007.37,0006.79
2021-10-01 00:08:00,,0833.2,4.99,0.00,28.3,27.6,00.0,37.5,30.1,23.5,-000.3,0012.80,0007.34,0006.76
2021-10-01 00:09:00,,0833.1,5.00,0.00,28.3,27.6,00.0,37.5,30.1,23.4,-000.5,0012.67,0007.29,0006.73
2021-10-01 00:10:00,,0833.2,5.00,0.00,28.3,27.6,00.0,37.5,30.0,23.5,-000.4,0012.08,0007.28,0006.72
2021-10-01 00:11:00,,0833.1,4.99,0.00,28.3,27.6,00.0,37.5,30.0,23.7,-000.5,0012.16,0007.33,0006.73
2021-10-01 00:12:00,,0833.2,4.99,0.00,28.3,27.6,00.0,37.5,30.0,23.8,-000.8,0012.26,0007.38,0006.75
2021-10-01 00:13:00,,0833.2,5.00,0.00,28.3,27.6,00.0,37.5,30.0,24.0,-001.0,0012.45,0007.41,0006.75
2021-10-01 00:14:00,,0833.2,5.00,0.00,28.3,27.6,00.0,37.5,30.1,24.0,-000.8,0011.83,0007.44,0006.76
2021-10-01 00:15:00,,0833.1,5.00,0.00,28.3,27.6,00.0,37.4,30.0,23.9,-000.9,0011.45,0007.40,0006.75
2021-10-01 00:16:00,,0833.1,5.00,0.00,28.3,27.6,00.0,37.4,30.0,24.0,-001.3,0011.36,0007.42,0006.77
2021-10-01 00:17:00,,0833.1,5.01,0.00,28.3,27.6,00.0,37.4,30.0,24.0,-001.1,0011.36,0007.43,0006.77
2021-10-01 00:18:00,,0833.2,5.00,0.00,28.3,27.6,00.0,37.4,30.0,24.0,-001.1,0011.24,0007.38,0006.77
2021-10-01 00:19:00,,0833.2,4.99,0.00,28.3,27.6,00.0,37.4,30.0,24.1,-000.9,0011.16,0007.40,0006.78
2021-10-01 00:20:00,,0833.1,5.01,0.00,28.3,27.6,00.0,37.4,30.0,24.1,-000.7,0011.24,0007.43,0006.78
2021-10-01 00:21:00,,0833.2,5.00,0.00,28.3,27.6,00.0,37.4,30.0,24.3,-000.8,0011.36,0007.43,0006.77
2021-10-01 00:22:00,,0833.2,4.98,0.00,28.2,27.6,00.0,37.4,30.0,24.3,-000.9,0011.23,0007.37,0006.75
2021-10-01 00:23:00,,0833.1,5.00,0.00,28.2,27.5,00.0,37.4,30.0,24.2,-000.8,0011.12,0007.33,0006.72
2021-10-01 00:24:00,,0833.1,5.01,0.00,28.2,27.5,00.0,37.4,30.0,24.2,-001.0,0010.95,0007.31,0006.72
2021-10-01 00:25:00,,0833.2,4.99,0.00,28.2,27.5,00.0,37.4,30.0,24.2,-001.1,0011.32,0007.29,0006.70
2021-10-01 00:26:00,,0833.2,5.00,0.00,28.2,27.5,00.0,37.4,30.0,24.2,-001.0,0011.46,0007.22,0006.66
2021-10-01 00:27:00,,0833.1,5.01,0.00,28.2,27.5,00.0,37.4,30.0,24.1,-000.5,0011.39,0007.17,0006.62
2021-10-01 00:28:00,,0833.1,5.00,0.00,28.2,27.5,00.0,37.4,29.9,24.2,-000.4,0011.62,0007.16,0006.59
2021-10-01 00:29:00,,0833.1,5.00,0.00,28.2,27.5,00.0,37.4,30.0,24.3,-000.5,0011.65,0007.17,0006.58
2021-10-01 00:30:00,,0833.1,5.00,0.00,28.2,27.5,00.0,37.4,30.0,24.3,-000.3,0011.66,0007.17,0006.56
2021-10-01 00:31:00,,0833.1,5.00,0.00,28.2,27.5,00.0,37.4,30.0,24.2,-000.4,0011.75,0007.17,0006.55
2021-10-01 00:32:00,,0833.1,5.01,0.00,28.2,27.5,00.0,37.4,30.0,24.3,-000.3,0011.59,0007.13,0006.54
2021-10-01 00:33:00,,0833.1,4.99,0.00,28.2,27.5,00.0,37.3,30.0,24.3,-000.2,0011.54,0007.11,0006.52
2021-10-01 00:34:00,,0833.1,4.99,0.00,28.2,27.5,00.0,37.3,29.9,24.4,0000.1,0011.49,0007.09,0006.49
2021-10-01 00:35:00,,0833.1,4.98,0.00,28.2,27.5,00.0,37.3,30.0,24.4,0000.2,0011.46,0007.06,0006.46
2021-10-01 00:36:00,,0833.1,5.00,0.00,28.2,27.5,00.0,37.3,30.0,24.4,0000.1,0011.10,0007.02,0006.44
2021-10-01 00:37:00,,0833.0,5.01,0.00,28.2,27.5,00.0,37.3,30.0,24.4,0000.1,0010.81,0007.03,0006.43
2021-10-01 00:38:00,,0833.0,4.99,0.00,28.2,27.5,00.0,37.3,30.0,24.4,-000.2,0010.77,0007.01,0006.43
2021-10-01 00:39:00,,0833.1,5.00,0.00,28.2,27.5,00.0,37.3,30.0,24.5,-000.1,0010.48,0007.00,0006.43
2021-10-01 00:40:00,,0833.0,5.00,0.00,28.2,27.5,00.0,37.3,30.0,24.5,-000.2,0010.50,0007.00,0006.44
2021-10-01 00:41:00,,0833.1,5.00,0.00,28.2,27.5,00.0,37.3,30.0,24.5,-000.6,0010.58,0007.04,0006.48
2021-10-01 00:42:00,,0833.1,4.98,0.00,28.2,27.5,00.0,37.3,30.0,24.4,-000.5,0010.60,0007.10,0006.54
2021-10-01 00:43:00,,0833.1,5.00,0.00,28.2,27.5,00.0,37.3,30.0,24.5,-000.5,0010.69,0007.17,0006.60
2021-10-01 00:44:00,,0833.1,5.01,0.00,28.2,27.5,00.0,37.3,30.0,24.2,-000.3,0010.64,0007.16,0006.60
2021-10-01 00:45:00,,0833.1,4.99,0.00,28.2,27.5,00.0,37.3,30.0,23.8,-000.2,0010.53,0007.08,0006.53
2021-10-01 00:46:00,,0833.1,4.99,0.00,28.2,27.5,00.0,37.3,30.0,23.6,-000.0,0010.37,0006.97,0006.44
2021-10-01 00:47:00,,0833.1,4.99,0.00,28.2,27.5,00.0,37.3,30.0,23.7,0000.3,0010.20,0006.87,0006.34
2021-10-01 00:48:00,,0833.2,5.00,0.00,28.2,27.5,00.0,37.3,30.0,23.7,0000.8,0010.21,0006.76,0006.24
2021-10-01 00:49:00,,0833.1,4.99,0.00,28.2,27.5,00.0,37.3,30.0,23.9,0001.1,0010.15,0006.68,0006.15
2021-10-01 00:50:00,,0833.1,5.00,0.00,28.2,27.5,00.0,37.3,30.0,24.2,0001.1,0009.95,0006.57,0006.06
2021-10-01 00:51:00,,0833.1,5.01,0.00,28.2,27.5,00.0,37.3,30.0,24.3,0001.6,0009.82,0006.49,0005.99
2021-10-01 00:52:00,,0833.1,4.99,0.00,28.2,27.5,00.0,37.3,30.0,24.3,0001.9,0009.66,0006.39,0005.91
2021-10-01 00:53:00,,0833.1,5.00,0.00,28.2,27.5,00.0,37.3,30.0,24.4,0002.2,0009.43,0006.25,0005.80
2021-10-01 00:54:00,,0833.1,5.01,0.00,28.2,27.5,00.0,37.3,30.0,24.3,0002.3,0009.24,0006.11,0005.68
2021-10-01 00:55:00,,0833.1,5.00,0.00,28.2,27.5,00.0,37.3,30.0,24.3,0002.1,0009.22,0006.07,0005.63
2021-10-01 00:56:00,,0833.1,5.01,0.00,28.2,27.5,00.0,37.3,30.0,24.3,0002.1,0009.27,0006.09,0005.62
2021-10-01 00:57:00,,0833.1,5.00,0.00,28.2,27.5,00.0,37.3,30.0,24.3,0002.1,0009.93,0006.09,0005.63
2021-10-01 00:58:00,,0833.1,5.01,0.00,28.2,27.5,00.0,37.3,30.0,24.3,0002.0,0010.39,0006.05,0005.60
2021-10-01 00:59:00,,0833.1,4.99,0.00,28.2,27.5,00.0,37.3,30.0,24.1,0001.8,0010.17,0006.02,0005.58
